| time (UTC) | temp C | wind direction | speed KPH | gust KPH | rain 1hr cm | rain 24hr cm | rain mn cm | humidity % | barometer mb |
| 20260510045036 | 21 | 152 | 8.0 | 14.5 | 0.00 | 0.00 | 0.00 | 77 | 1028.0 |
| 20260510044054 | 21 | 139 | 9.7 | 19.3 | 0.00 | 0.00 | 0.00 | 77 | 1027.8 |
| 20260510043033 | 21 | 117 | 6.4 | 16.1 | 0.00 | 0.00 | 0.00 | 76 | 1027.6 |
| 20260510042031 | 21 | 142 | 8.0 | 16.1 | 0.00 | 0.00 | 0.00 | 75 | 1027.4 |
| 20260510041031 | 21 | 139 | 11.3 | 17.7 | 0.00 | 0.00 | 0.00 | 75 | 1027.4 |
| 20260510040029 | 21 | 145 | 11.3 | 17.7 | 0.00 | 0.00 | 0.00 | 72 | 1027.4 |
| 20260510035027 | 21 | 110 | 11.3 | 14.5 | 0.00 | 0.00 | 0.00 | 71 | 1027.4 |
| 20260510034026 | 21 | 137 | 12.9 | 19.3 | 0.00 | 0.00 | 0.00 | 69 | 1027.3 |
| 20260510033025 | 22 | 176 | 11.3 | 16.1 | 0.00 | 0.00 | 0.00 | 68 | 1027.4 |
| 20260510032043 | 22 | 137 | 9.7 | 14.5 | 0.00 | 0.00 | 0.00 | 69 | 1027.4 |
| 20260510031042 | 21 | 137 | 6.4 | 12.9 | 0.00 | 0.00 | 0.00 | 70 | 1027.3 |
| 20260510030021 | 21 | 140 | 9.7 | 16.1 | 0.00 | 0.00 | 0.00 | 70 | 1027.5 |
| 20260510025020 | 22 | 102 | 16.1 | 25.7 | 0.00 | 0.00 | 0.00 | 69 | 1027.4 |
| 20260510024018 | 21 | 140 | 11.3 | 20.9 | 0.00 | 0.00 | 0.00 | 69 | 1027.6 |
| 20260510023017 | 21 | 152 | 9.7 | 11.3 | 0.00 | 0.00 | 0.00 | 69 | 1027.6 |
| 20260510022016 | 21 | 170 | 14.5 | 24.1 | 0.00 | 0.00 | 0.00 | 70 | 1027.7 |
| 20260510021045 | 21 | 126 | 8.0 | 12.9 | 0.00 | 0.00 | 0.00 | 71 | 1027.8 |
| 20260510020043 | 21 | 136 | 17.7 | 20.9 | 0.00 | 0.00 | 0.00 | 70 | 1027.9 |
| 20260510015042 | 21 | 152 | 12.9 | 14.5 | 0.00 | 0.00 | 0.00 | 70 | 1028.0 |
| 20260510014041 | 21 | 108 | 11.3 | 17.7 | 0.00 | 0.00 | 0.00 | 68 | 1028.1 |
| 20260510013040 | 22 | 157 | 12.9 | 17.7 | 0.00 | 0.00 | 0.00 | 69 | 1028.1 |
| 20260510012038 | 22 | 220 | 6.4 | 6.4 | 0.00 | 0.00 | 0.00 | 67 | 1028.4 |
| 20260510011118 | 21 | 142 | 8.0 | 11.3 | 0.00 | 0.00 | 0.00 | 67 | 1028.3 |
| 20260510010056 | 21 | 227 | 6.4 | 9.7 | 0.00 | 0.00 | 0.00 | 66 | 1028.4 |
| 20260510005035 | 21 | 155 | 6.4 | 8.0 | 0.00 | 0.00 | 0.00 | 68 | 1028.5 |
| 20260510004034 | 20 | 173 | 4.8 | 8.0 | 0.00 | 0.00 | 0.00 | 69 | 1028.8 |
| 20260510003032 | 20 | 189 | 1.6 | 8.0 | 0.00 | 0.00 | 0.00 | 70 | 1028.8 |
| 20260510002031 | 20 | 189 | 3.2 | 6.4 | 0.00 | 0.00 | 0.00 | 70 | 1029.0 |
| 20260510001030 | 20 | 197 | 6.4 | 9.7 | 0.00 | 0.00 | 0.00 | 69 | 1028.9 |
| 20260510000029 | 20 | 151 | 11.3 | 19.3 | 0.00 | 0.00 | 0.00 | 70 | 1028.9 |
| 20260509235027 | 19 | 226 | 4.8 | 8.0 | 0.00 | 0.00 | 0.00 | 71 | 1028.8 |
| 20260509234026 | 18 | 247 | 4.8 | 8.0 | 0.00 | 0.00 | 0.00 | 71 | 1028.9 |
| 20260509233025 | 18 | 246 | 3.2 | 6.4 | 0.00 | 0.00 | 0.00 | 72 | 1028.8 |
| 20260509232024 | 18 | 171 | 1.6 | 8.0 | 0.00 | 0.00 | 0.00 | 73 | 1028.9 |
| 20260509231023 | 17 | 279 | 3.2 | 6.4 | 0.00 | 0.00 | 0.00 | 73 | 1028.9 |
| 20260509230021 | 17 | 280 | 3.2 | 6.4 | 0.00 | 0.00 | 0.00 | 74 | 1028.8 |
| 20260509225020 | 17 | 237 | 3.2 | 4.8 | 0.00 | 0.00 | 0.00 | 74 | 1028.7 |
| 20260509224019 | 16 | 250 | 3.2 | 4.8 | 0.00 | 0.00 | 0.00 | 75 | 1028.7 |
| 20260509223018 | 16 | 259 | 8.0 | 9.7 | 0.00 | 0.00 | 0.00 | 77 | 1028.7 |
| 20260509222036 | 15 | 150 | 3.2 | 6.4 | 0.00 | 0.00 | 0.00 | 78 | 1028.7 |
| 20260509221046 | 15 | 225 | 9.7 | 11.3 | 0.00 | 0.00 | 0.00 | 80 | 1028.5 |
| 20260509220044 | 14 | 202 | 3.2 | 6.4 | 0.00 | 0.00 | 0.00 | 81 | 1028.3 |
| 20260509215042 | 13 | 220 | 3.2 | 6.4 | 0.00 | 0.00 | 0.00 | 83 | 1028.2 |
| 20260509214041 | 13 | 195 | 4.8 | 6.4 | 0.00 | 0.00 | 0.00 | 82 | 1028.4 |
| 20260509213040 | 13 | 139 | 8.0 | 9.7 | 0.00 | 0.00 | 0.00 | 84 | 1028.4 |
| 20260509212039 | 12 | 138 | 4.8 | 6.4 | 0.00 | 0.00 | 0.00 | 86 | 1028.4 |
| 20260509211037 | 12 | 150 | 4.8 | 6.4 | 0.00 | 0.00 | 0.00 | 87 | 1028.0 |
| 20260509210035 | 12 | 191 | 4.8 | 6.4 | 0.00 | 0.00 | 0.00 | 88 | 1028.0 |
| 20260509205034 | 11 | 179 | 4.8 | 6.4 | 0.00 | 0.00 | 0.00 | 90 | 1027.9 |
| 20260509204053 | 11 | 146 | 3.2 | 4.8 | 0.00 | 0.00 | 0.00 | 91 | 1027.8 |
| 20260509203032 | 11 | 148 | 3.2 | 6.4 | 0.00 | 0.00 | 0.00 | 90 | 1027.9 |
| 20260509202031 | 11 | 155 | 4.8 | 4.8 | 0.00 | 0.00 | 0.00 | 89 | 1027.6 |
| 20260509201029 | 11 | 161 | 3.2 | 4.8 | 0.00 | 0.00 | 0.00 | 89 | 1027.4 |
| 20260509200109 | 11 | 163 | 3.2 | 6.4 | 0.00 | 0.00 | 0.00 | 89 | 1027.4 |
| 20260509195027 | 11 | 209 | 3.2 | 6.4 | 0.00 | 0.00 | 0.00 | 89 | 1027.2 |
| 20260509194025 | 12 | 148 | 4.8 | 6.4 | 0.00 | 0.00 | 0.00 | 88 | 1027.1 |
| 20260509193025 | 12 | 155 | 4.8 | 6.4 | 0.00 | 0.00 | 0.00 | 88 | 1027.0 |
| 20260509192044 | 12 | 178 | 4.8 | 6.4 | 0.00 | 0.00 | 0.00 | 89 | 1026.9 |
| 20260509191022 | 12 | 172 | 4.8 | 6.4 | 0.00 | 0.00 | 0.00 | 89 | 1026.7 |
| 20260509190021 | 12 | 192 | 4.8 | 6.4 | 0.00 | 0.00 | 0.00 | 88 | 1026.8 |
| 20260509185019 | 12 | 181 | 4.8 | 8.0 | 0.00 | 0.00 | 0.00 | 89 | 1026.8 |
| 20260509184018 | 11 | 132 | 4.8 | 9.7 | 0.00 | 0.00 | 0.00 | 89 | 1026.6 |
| 20260509183038 | 12 | 162 | 3.2 | 6.4 | 0.00 | 0.00 | 0.00 | 89 | 1026.5 |
| 20260509182037 | 12 | 202 | 4.8 | 6.4 | 0.00 | 0.00 | 0.00 | 88 | 1026.4 |
| 20260509181105 | 12 | 198 | 4.8 | 6.4 | 0.00 | 0.00 | 0.00 | 88 | 1026.3 |
| 20260509180043 | 12 | 204 | 6.4 | 9.7 | 0.00 | 0.00 | 0.00 | 89 | 1026.3 |
| 20260509175043 | 12 | 147 | 4.8 | 8.0 | 0.00 | 0.00 | 0.00 | 87 | 1026.3 |
| 20260509174041 | 12 | 143 | 4.8 | 6.4 | 0.00 | 0.00 | 0.00 | 90 | 1026.1 |
| 20260509173040 | 12 | 154 | 4.8 | 6.4 | 0.00 | 0.00 | 0.00 | 89 | 1026.2 |
| 20260509172039 | 12 | 191 | 3.2 | 4.8 | 0.00 | 0.00 | 0.00 | 88 | 1026.2 |
| 20260509171058 | 12 | 189 | 3.2 | 4.8 | 0.00 | 0.00 | 0.00 | 89 | 1026.1 |
| 20260509170036 | 12 | 144 | 6.4 | 6.4 | 0.00 | 0.00 | 0.00 | 89 | 1026.0 |
| 20260509165035 | 12 | 114 | 4.8 | 6.4 | 0.00 | 0.00 | 0.00 | 88 | 1026.1 |
| 20260509164034 | 12 | 88 | 1.6 | 4.8 | 0.00 | 0.00 | 0.00 | 87 | 1026.2 |
| 20260509163052 | 13 | 161 | 8.0 | 11.3 | 0.00 | 0.00 | 0.00 | 85 | 1026.0 |
| 20260509162031 | 13 | 174 | 6.4 | 8.0 | 0.00 | 0.00 | 0.00 | 85 | 1026.2 |
| 20260509161029 | 13 | 161 | 3.2 | 8.0 | 0.00 | 0.00 | 0.00 | 86 | 1026.1 |
| 20260509160048 | 13 | 207 | 6.4 | 8.0 | 0.00 | 0.00 | 0.00 | 86 | 1026.2 |
| 20260509155027 | 13 | 268 | 8.0 | 11.3 | 0.00 | 0.00 | 0.00 | 86 | 1026.2 |
| 20260509154026 | 12 | 241 | 1.6 | 3.2 | 0.00 | 0.00 | 0.00 | 87 | 1026.1 |
| 20260509153105 | 12 | 173 | 3.2 | 8.0 | 0.00 | 0.00 | 0.00 | 87 | 1026.1 |
| 20260509152023 | 12 | 169 | 3.2 | 3.2 | 0.00 | 0.00 | 0.00 | 87 | 1026.2 |
| 20260509151102 | 12 | 144 | 4.8 | 8.0 | 0.00 | 0.00 | 0.00 | 87 | 1026.3 |
| 20260509150042 | 13 | 142 | 6.4 | 6.4 | 0.00 | 0.00 | 0.00 | 85 | 1026.3 |
| 20260509145019 | 13 | 128 | 4.8 | 6.4 | 0.00 | 0.00 | 0.00 | 84 | 1026.3 |
| 20260509144018 | 13 | 139 | 6.4 | 8.0 | 0.00 | 0.00 | 0.00 | 86 | 1026.3 |
| 20260509143017 | 13 | 121 | 4.8 | 6.4 | 0.00 | 0.00 | 0.00 | 87 | 1026.4 |
| 20260509142016 | 13 | 118 | 4.8 | 4.8 | 0.00 | 0.00 | 0.00 | 84 | 1026.3 |
| 20260509141105 | 14 | 133 | 4.8 | 6.4 | 0.00 | 0.00 | 0.00 | 83 | 1026.3 |
| 20260509140044 | 14 | 140 | 4.8 | 6.4 | 0.00 | 0.00 | 0.00 | 84 | 1026.2 |
| 20260509135042 | 14 | 145 | 4.8 | 6.4 | 0.00 | 0.00 | 0.00 | 83 | 1026.2 |
| 20260509134101 | 14 | 186 | 4.8 | 6.4 | 0.00 | 0.00 | 0.00 | 83 | 1026.3 |
| 20260509133041 | 14 | 185 | 3.2 | 6.4 | 0.00 | 0.00 | 0.00 | 84 | 1026.3 |
| 20260509132038 | 14 | 178 | 3.2 | 4.8 | 0.00 | 0.00 | 0.00 | 85 | 1026.6 |
| 20260509131037 | 14 | 174 | 3.2 | 4.8 | 0.00 | 0.00 | 0.00 | 88 | 1026.5 |
| 20260509130035 | 14 | 171 | 3.2 | 3.2 | 0.00 | 0.00 | 0.00 | 87 | 1026.4 |
| 20260509125035 | 15 | 144 | 4.8 | 6.4 | 0.00 | 0.00 | 0.00 | 85 | 1026.3 |
| 20260509124033 | 15 | 157 | 3.2 | 4.8 | 0.00 | 0.00 | 0.00 | 84 | 1026.3 |
| 20260509123032 | 15 | 158 | 4.8 | 8.0 | 0.00 | 0.00 | 0.00 | 83 | 1026.4 |
| 20260509122031 | 15 | 144 | 4.8 | 6.4 | 0.00 | 0.00 | 0.00 | 84 | 1026.1 |
| 20260509121030 | 15 | 136 | 4.8 | 6.4 | 0.00 | 0.00 | 0.00 | 85 | 1026.3 |
| 20260509120028 | 15 | 150 | 4.8 | 6.4 | 0.00 | 0.00 | 0.00 | 84 | 1026.3 |
| 20260509115027 | 15 | 138 | 4.8 | 6.4 | 0.00 | 0.00 | 0.00 | 83 | 1026.4 |
| 20260509114026 | 15 | 150 | 6.4 | 6.4 | 0.00 | 0.00 | 0.00 | 83 | 1026.3 |
| 20260509113026 | 15 | 157 | 4.8 | 6.4 | 0.00 | 0.00 | 0.00 | 83 | 1026.4 |
| 20260509112024 | 15 | 123 | 4.8 | 6.4 | 0.00 | 0.00 | 0.00 | 82 | 1026.4 |
| 20260509111023 | 16 | 145 | 4.8 | 8.0 | 0.00 | 0.00 | 0.00 | 82 | 1026.3 |
| 20260509110021 | 16 | 157 | 4.8 | 6.4 | 0.00 | 0.00 | 0.00 | 83 | 1026.1 |
| 20260509105019 | 16 | 140 | 4.8 | 4.8 | 0.00 | 0.00 | 0.00 | 82 | 1026.1 |
| 20260509104019 | 16 | 136 | 4.8 | 6.4 | 0.00 | 0.00 | 0.00 | 82 | 1026.1 |
| 20260509103016 | 16 | 155 | 3.2 | 6.4 | 0.00 | 0.00 | 0.00 | 82 | 1026.0 |
| 20260509102045 | 16 | 170 | 4.8 | 8.0 | 0.00 | 0.00 | 0.00 | 82 | 1026.0 |
| 20260509101044 | 16 | 167 | 4.8 | 4.8 | 0.00 | 0.00 | 0.00 | 82 | 1025.9 |
| 20260509095041 | 16 | 152 | 3.2 | 6.4 | 0.00 | 0.00 | 0.00 | 81 | 1025.9 |
| 20260509094121 | 17 | 161 | 4.8 | 6.4 | 0.00 | 0.00 | 0.00 | 80 | 1025.7 |
| 20260509093039 | 17 | 137 | 3.2 | 6.4 | 0.00 | 0.00 | 0.00 | 79 | 1025.5 |
| 20260509092038 | 17 | 154 | 3.2 | 4.8 | 0.00 | 0.00 | 0.00 | 79 | 1025.4 |
| 20260509091037 | 17 | 149 | 3.2 | 4.8 | 0.00 | 0.00 | 0.00 | 78 | 1025.6 |
| 20260509090036 | 18 | 186 | 3.2 | 6.4 | 0.00 | 0.00 | 0.00 | 76 | 1025.0 |
| 20260509085034 | 18 | 138 | 8.0 | 9.7 | 0.00 | 0.00 | 0.00 | 77 | 1025.1 |
| 20260509084033 | 18 | 134 | 6.4 | 8.0 | 0.00 | 0.00 | 0.00 | 76 | 1025.1 |
| 20260509083031 | 18 | 141 | 6.4 | 8.0 | 0.00 | 0.00 | 0.00 | 75 | 1024.9 |
| 20260509082030 | 18 | 135 | 6.4 | 8.0 | 0.00 | 0.00 | 0.00 | 75 | 1024.9 |
| 20260509081029 | 18 | 165 | 4.8 | 8.0 | 0.00 | 0.00 | 0.00 | 76 | 1024.9 |
| 20260509080028 | 18 | 158 | 6.4 | 8.0 | 0.00 | 0.00 | 0.00 | 76 | 1024.8 |
| 20260509075027 | 18 | 160 | 3.2 | 4.8 | 0.00 | 0.00 | 0.00 | 76 | 1024.8 |
| 20260509074026 | 18 | 161 | 4.8 | 6.4 | 0.00 | 0.00 | 0.00 | 74 | 1024.5 |
| 20260509073024 | 18 | 160 | 1.6 | 4.8 | 0.00 | 0.00 | 0.00 | 73 | 1024.4 |
| 20260509072023 | 18 | 172 | 3.2 | 4.8 | 0.00 | 0.00 | 0.00 | 72 | 1024.4 |
| 20260509071021 | 18 | 181 | 3.2 | 3.2 | 0.00 | 0.00 | 0.00 | 72 | 1024.2 |
| 20260509070020 | 19 | 134 | 4.8 | 4.8 | 0.00 | 0.00 | 0.00 | 72 | 1024.1 |
| 20260509065019 | 19 | 121 | 3.2 | 3.2 | 0.00 | 0.00 | 0.00 | 71 | 1023.9 |
| 20260509064018 | 19 | 175 | 3.2 | 4.8 | 0.00 | 0.00 | 0.00 | 70 | 1024.1 |
| 20260509063017 | 19 | 143 | 8.0 | 11.3 | 0.00 | 0.00 | 0.00 | 70 | 1023.9 |
| 20260509062045 | 19 | 139 | 8.0 | 9.7 | 0.00 | 0.00 | 0.00 | 69 | 1023.9 |
| 20260509061044 | 20 | 141 | 4.8 | 6.4 | 0.00 | 0.00 | 0.00 | 68 | 1023.7 |
| 20260509060043 | 20 | 110 | 3.2 | 8.0 | 0.00 | 0.00 | 0.00 | 67 | 1023.6 |
| 20260509055042 | 20 | 96 | 9.7 | 9.7 | 0.00 | 0.00 | 0.00 | 67 | 1023.5 |
| 20260509054040 | 20 | 95 | 4.8 | 9.7 | 0.00 | 0.00 | 0.00 | 66 | 1023.3 |
| 20260509053040 | 20 | 153 | 3.2 | 8.0 | 0.00 | 0.00 | 0.00 | 65 | 1023.4 |
| 20260509052038 | 20 | 115 | 6.4 | 11.3 | 0.00 | 0.00 | 0.00 | 64 | 1023.3 |
| 20260509051036 | 21 | 144 | 6.4 | 9.7 | 0.00 | 0.00 | 0.00 | 63 | 1023.4 |
| 20260509050035 | 20 | 109 | 8.0 | 11.3 | 0.00 | 0.00 | 0.00 | 63 | 1023.1 |